Location: Azul
(36.7830°S, 59.8500°W)
Time: 09:56:36
(UTC-03:00)

M-CUBED/EXP-1 PRIME - Visible Passes

Search period start: 22 October 2021 00:00
Search period end: 01 November 2021 00:00
Orbit: 427 x 655 km, 101.7° (Epoch: 22 October)

Date Brightness Start Highest point End Pass type
(mag) Time Alt. Az. Time Alt. Az. Time Alt. Az.
22 Oct ? 04:39:17 10° NE 04:43:23 37° ESE 04:47:36 10° S visible
23 Oct ? 04:32:29 10° NE 04:36:23 30° ESE 04:40:22 10° S visible
24 Oct ? 04:25:46 10° ENE 04:29:24 24° ESE 04:33:05 10° S visible
25 Oct ? 04:19:08 10° ENE 04:22:24 20° ESE 04:25:41 10° SSE visible
26 Oct ? 04:12:38 10° E 04:15:25 16° ESE 04:18:11 10° SSE visible
27 Oct ? 04:06:20 10° E 04:08:25 13° ESE 04:10:30 10° SSE visible
28 Oct ? 04:00:38 10° ESE 04:01:26 10° ESE 04:02:12 10° SE visible
28 Oct ? 05:30:16 10° NNE 05:34:48 83° WNW 05:39:24 10° SSW visible
29 Oct ? 05:23:10 10° NNE 05:27:42 78° ESE 05:32:16 10° SSW visible
30 Oct ? 05:16:08 10° NNE 05:20:37 61° ESE 05:25:06 10° S visible
31 Oct ? 05:09:09 10° NE 05:13:31 48° ESE 05:17:52 10° S visible
31 Oct ? 19:57:51 10° SW 19:59:23 12° WSW 20:00:51 10° W visible
